sat.trackr.live / text

‹ back to catalog

STARLINK-32643

NORAD 62233 · 2024-231R

PAYLOAD ACTIVE UNKNOWN

§ Identity

Operator
Country
US
Launch date
2024-12-05
Launch site
AFWTR
Launch vehicle
Mass (kg)
RCS (m²)

Purposes: comms

External: N2YO · Heavens-Above · Gunter

§ Orbital elements

Epoch: 2026-05-25T04:20:19.146624Z

Period
94.01 min
Inclination
53.1599°
Eccentricity
0.0001462
Mean motion
15.31719383 rev/d
Perigee alt
469.7 km
Apogee alt
471.7 km
Semi-major
6,848.8 km
B*
6.1566e-4
RAAN
211.2603°
Arg perigee
99.9732°
Mean anomaly
260.1435°
Rev number
8,365

§ Raw data

STARLINK-326431 62233U 24231R   26145.18077716  .00018799  00000+0  61566-3 0  99932 62233  53.1599 211.2603 0001462  99.9732 260.1435 15.31719383 83651

JSON: /api/v1/satellites/62233 · /tle

For live sub-satellite position, see the globe view (requires WebGL).

§ Visibility from observer

Set your observer location to see the next 7 days of passes ≥ 10°. The values pass through the URL so the page stays shareable.

No JS? Fill the form by hand. The geolocation button needs JavaScript.